Location: Godzisko
(49.9648°N, 19.4576°E)
Time: 01:40:40
(UTC+00:00)

ERBS - Pass Details

Date: 20 April 2021
Orbit: 405 x 414 km, 57.0° (Epoch: 08 May)

Event Time Altitude Azimuth Distance (km) Brightness Sun altitude
Exits shadow 01:38:59 20° 297° (WNW) 1,023 4.0 -17.3°
Maximum altitude 01:40:34 30° 344° (NNW) 766 3.8 -17.1°
Drops below altitude 10° 01:43:35 10° 48° (NE) 1,492 6.4 -16.7°
Sets 01:45:49 0° 60° (ENE) 2,358 7.7 -16.4°
